Knox, IN

1:46 AM CDT on May 27, 2017 (GMT -0500)
Starke County

Weather History for KOXI - October, 2012

Change the Weather History Date:

Sunday, October 21, 2012

  Actual Average (KRCR) Record (KRCR)
Temperature  
Mean Temperature 50 °F -  
Max Temperature 93 °F 58 °F 78 °F (2015)
Min Temperature 33 °F 36 °F 37 °F (2013)
Degree Days  
Heating Degree Days 16    
Moisture  
Dew Point 43 °F    
Average Humidity 79    
Maximum Humidity 99    
Minimum Humidity 48    
Precipitation  
Precipitation 0.00 in - - ()
Sea Level Pressure  
Sea Level Pressure 30.02 in    
Wind  
Wind Speed 5 mph (SSE)    
Max Wind Speed 13 mph    
Max Gust Speed 17 mph    
Visibility 8 miles    
Events      
Averages and records for this station are not official NWS values.
T = Trace of Precipitation, MM = Missing Value Source: NWS Daily Summary

Daily Weather History Graph

Daily Weather History Graph

Search for Another Location

Airport or City:

Trip Planner

Search our weather history database for the weather conditions in past years. The results will help you decide how hot, cold, wet, or windy it might be!

Date:

Astronomy

Oct. 21, 2012 Rise Set
Actual Time 7:05 AM CDT 5:55 PM CDT
Civil Twilight 6:37 AM CDT 6:24 PM CDT
Nautical Twilight 6:05 AM CDT 6:56 PM CDT
Astronomical Twilight 5:33 AM CDT 7:28 PM CDT
Moon 1:27 PM CDT (10/21) 11:48 PM CDT (10/21)
Length of Visible Light 11h 46m
Length of Day
10h 50m
Waxing Crescent, 45% of the Moon is Illuminated
Oct 21
Waxing Crescent
Oct 21
First Quarter
Oct 29
Full
Nov 6
Last Quarter
Nov 13
New

Hourly Weather History & Observations

Time (CDT) Temp. Windchill Dew Point Humidity Pressure Visibility Wind Dir Wind Speed Gust Speed Precip Events Conditions
12:15 AM 39.7 °F 36.5 °F 38.3 °F 95% 29.95 in 10.0 mi SW 4.6 mph - N/A   Clear
12:35 AM 39.6 °F 37.4 °F 38.1 °F 95% 29.96 in 10.0 mi SSW 3.5 mph - N/A   Clear
12:55 AM 39.2 °F 35.9 °F 37.9 °F 95% 29.97 in 10.0 mi SSW 4.6 mph - N/A   Clear
1:15 AM 38.1 °F 34.6 °F 37.0 °F 96% 29.98 in 7.0 mi SSW 4.6 mph - N/A   Clear
1:35 AM 37.9 °F 34.4 °F 37.2 °F 97% 29.98 in 10.0 mi SSW 4.6 mph - N/A   Clear
1:55 AM 38.3 °F 35.9 °F 37.4 °F 97% 29.99 in 10.0 mi SW 3.5 mph - N/A   Clear
2:15 AM 38.5 °F - 37.6 °F 97% 30.00 in 7.0 mi Calm Calm - N/A   Clear
2:35 AM 37.0 °F - 36.3 °F 97% 30.01 in 5.0 mi Calm Calm - N/A   Clear
2:55 AM 36.1 °F - 35.4 °F 97% 30.00 in 7.0 mi Calm Calm - N/A   Clear
3:15 AM 35.8 °F 31.9 °F 35.1 °F 97% 30.01 in 5.0 mi SE 4.6 mph - N/A   Clear
3:35 AM 34.7 °F 30.6 °F 34.2 °F 98% 30.01 in 4.0 mi SSE 4.6 mph - N/A   Clear
3:55 AM 34.5 °F - 34.2 °F 99% 30.01 in 5.0 mi Calm Calm - N/A   Clear
4:15 AM 34.3 °F - 34.0 °F 99% 30.01 in 5.0 mi Calm Calm - N/A   Clear
4:35 AM 34.5 °F 30.4 °F 34.2 °F 99% 30.02 in 4.0 mi SE 4.6 mph - N/A   Clear
4:55 AM 35.1 °F 32.2 °F 34.7 °F 99% 30.02 in 4.0 mi SE 3.5 mph - N/A   Clear
5:15 AM 35.1 °F 31.0 °F 34.7 °F 99% 30.02 in 4.0 mi ESE 4.6 mph - N/A   Clear
5:35 AM 34.9 °F 30.8 °F 34.7 °F 99% 30.02 in 4.0 mi SE 4.6 mph - N/A   Clear
6:15 AM 34.0 °F 31.0 °F 33.6 °F 99% 30.04 in 5.0 mi SSE 3.5 mph - N/A   Clear
6:35 AM 33.1 °F - 32.7 °F 99% 30.03 in 1.5 mi Calm Calm - N/A   Unknown
7:15 AM 34.3 °F 31.4 °F 34.0 °F 99% 30.04 in 2.0 mi SSE 3.5 mph - N/A   Clear
7:35 AM 34.3 °F 30.2 °F 34.0 °F 99% 30.04 in 2.0 mi SE 4.6 mph - N/A   Clear
7:55 AM 35.6 °F 30.7 °F 35.2 °F 99% 30.04 in 2.0 mi SE 5.8 mph - N/A   Clear
8:15 AM 38.1 °F 35.7 °F 37.6 °F 98% 30.05 in 2.5 mi ESE 3.5 mph - N/A   Clear
8:35 AM 41.0 °F 38.0 °F 40.5 °F 98% 30.06 in 4.0 mi SE 4.6 mph - N/A   Clear
8:55 AM 43.3 °F 40.7 °F 42.8 °F 98% 30.07 in 7.0 mi SE 4.6 mph - N/A   Clear
9:15 AM 45.5 °F 42.5 °F 44.4 °F 96% 30.07 in 10.0 mi SE 5.8 mph - N/A   Clear
9:35 AM 47.3 °F - 45.1 °F 92% 30.08 in 10.0 mi SSE 5.8 mph - N/A   Clear
9:55 AM 49.3 °F - 45.5 °F 87% 30.08 in 10.0 mi SSE 5.8 mph - N/A   Clear
10:15 AM 51.3 °F - 46.0 °F 82% 30.08 in 10.0 mi SSE 5.8 mph - N/A   Clear
10:35 AM 53.1 °F - 46.0 °F 77% 30.08 in 10.0 mi South 8.1 mph - N/A   Clear
10:55 AM 54.7 °F - 45.7 °F 72% 30.08 in 10.0 mi South 8.1 mph - N/A   Clear
11:15 AM 56.3 °F - 45.7 °F 68% 30.08 in 10.0 mi South 10.4 mph - N/A   Clear
11:35 AM 57.6 °F - 45.5 °F 64% 30.07 in 10.0 mi SSE 10.4 mph - N/A   Clear
11:55 AM 59.0 °F - 45.9 °F 62% 30.06 in 10.0 mi South 9.2 mph - N/A   Clear
12:15 PM 60.3 °F - 46.0 °F 59% 30.05 in 10.0 mi SSE 8.1 mph 17.3 mph N/A   Clear
12:35 PM 61.2 °F - 46.2 °F 58% 30.04 in 10.0 mi South 9.2 mph - N/A   Clear
12:55 PM 62.1 °F - 46.4 °F 56% 30.03 in 10.0 mi South 6.9 mph - N/A   Clear
1:15 PM 63.0 °F - 46.8 °F 55% 30.03 in 10.0 mi SE 9.2 mph 16.1 mph N/A   Clear
1:35 PM 63.5 °F - 46.8 °F 54% 30.02 in 10.0 mi SSE 8.1 mph - N/A   Clear
1:55 PM 64.2 °F - 46.8 °F 53% 30.02 in 10.0 mi SSE 9.2 mph - N/A   Clear
2:15 PM 64.9 °F - 46.9 °F 52% 30.01 in 10.0 mi SE 9.2 mph - N/A   Clear
2:35 PM 65.7 °F - 46.9 °F 51% 30.01 in 10.0 mi SE 6.9 mph - N/A   Clear
2:55 PM 65.8 °F - 47.1 °F 51% 30.00 in 10.0 mi SSE 6.9 mph - N/A   Clear
3:15 PM 66.6 °F - 46.9 °F 49% 30.00 in 10.0 mi SE 8.1 mph - N/A   Clear
3:35 PM 66.6 °F - 46.8 °F 49% 30.00 in 10.0 mi SE 9.2 mph - N/A   Clear
4:15 PM 66.7 °F - 46.6 °F 48% 29.99 in 10.0 mi SSE 12.7 mph - N/A   Clear
4:35 PM 66.4 °F - 46.9 °F 50% 29.98 in 10.0 mi SSE 10.4 mph - N/A   Clear
4:55 PM 66.0 °F - 47.3 °F 51% 29.99 in 10.0 mi SSE 10.4 mph - N/A   Clear
5:15 PM 65.3 °F - 47.7 °F 53% 29.99 in 10.0 mi SSE 9.2 mph - N/A   Clear
5:35 PM 64.0 °F - 47.7 °F 55% 29.99 in 10.0 mi SSE 8.1 mph - N/A   Clear
5:55 PM 62.2 °F - 47.5 °F 58% 29.99 in 10.0 mi SE 6.9 mph - N/A   Clear
6:15 PM 59.5 °F - 47.5 °F 64% 30.00 in 10.0 mi ESE 5.8 mph - N/A   Clear
6:35 PM 58.3 °F - 47.1 °F 66% 30.00 in 10.0 mi ESE 6.9 mph - N/A   Clear
6:55 PM 57.0 °F - 46.8 °F 69% 30.00 in 10.0 mi ESE 6.9 mph - N/A   Clear
7:15 PM 56.1 °F - 46.8 °F 71% 30.01 in 10.0 mi ESE 5.8 mph - N/A   Clear
7:35 PM 55.2 °F - 46.6 °F 73% 30.01 in 10.0 mi ESE 6.9 mph - N/A   Clear
8:15 PM 54.5 °F - 46.6 °F 75% 30.01 in 10.0 mi SE 5.8 mph - N/A   Clear
8:35 PM 53.6 °F - 46.4 °F 77% 30.01 in 10.0 mi SE 5.8 mph - N/A   Clear
8:55 PM 53.1 °F - 46.9 °F 80% 30.01 in 10.0 mi SE 6.9 mph - N/A   Clear
9:15 PM 53.2 °F - 47.7 °F 81% 30.01 in 10.0 mi SE 6.9 mph - N/A   Clear
9:35 PM 52.7 °F - 47.7 °F 83% 30.01 in 10.0 mi SE 5.8 mph - N/A   Clear
9:55 PM 52.7 °F - 47.5 °F 82% 30.02 in 10.0 mi SE 4.6 mph - N/A   Clear
10:15 PM 52.5 °F - 47.3 °F 82% 30.02 in 10.0 mi SE 4.6 mph - N/A   Clear
10:35 PM 51.3 °F - 46.9 °F 85% 30.02 in 10.0 mi SE 4.6 mph - N/A   Clear
10:55 PM 50.0 °F - 46.6 °F 88% 30.02 in 10.0 mi SE 6.9 mph - N/A   Clear
11:15 PM 50.9 °F - 47.1 °F 87% 30.01 in 10.0 mi SSE 9.2 mph - N/A   Clear
11:35 PM 52.9 °F - 48.0 °F 84% 30.01 in 10.0 mi SSE 8.1 mph - N/A   Clear
11:55 PM 53.6 °F - 48.0 °F 81% 30.01 in 10.0 mi SSE 5.8 mph - N/A   Clear